Moab, UT

6:18 PM MST on February 05, 2016 (GMT -0700)
Canyonlands

Weather History for KCNY - November, 2013

Change the Weather History Date:

Tuesday, November 19, 2013

  Actual Average Record
Temperature  
Mean Temperature 39 °F 37 °F  
Max Temperature 50 °F 48 °F 71 °F (1967)
Min Temperature 28 °F 26 °F 17 °F (1951)
Degree Days  
Heating Degree Days 26 28  
Month to date heating degree days 441 451  
Since 1 July heating degree days 909 870  
Cooling Degree Days 0 0  
Month to date cooling degree days 0 0  
Year to date cooling degree days 1643 1289  
Moisture  
Dew Point 26 °F    
Average Humidity 56    
Maximum Humidity 72    
Minimum Humidity 39    
Precipitation  
Precipitation 0.00 in 0.02 in 0.82 in (1973)
Month to date precipitation T 0.44  
Year to date precipitation 5.52 7.95  
Sea Level Pressure  
Sea Level Pressure 29.96 in    
Wind  
Wind Speed 3 mph (West)    
Max Wind Speed 13 mph    
Max Gust Speed 15 mph    
Visibility 10 miles    
Events      
T = Trace of Precipitation, MM = Missing Value Source: NWS Daily Summary

Daily Weather History Graph

Daily Weather History Graph

Search for Another Location

Airport or City:

Trip Planner

Search our weather history database for the weather conditions in past years. The results will help you decide how hot, cold, wet, or windy it might be!

Date:

Astronomy

Nov. 19, 2013 Rise Set
Actual Time 7:06 AM MST 5:02 PM MST
Civil Twilight 6:37 AM MST 5:31 PM MST
Nautical Twilight 6:04 AM MST 6:03 PM MST
Astronomical Twilight 5:33 AM MST 6:35 PM MST
Moon 6:56 PM MST (11/19) 8:47 AM MST (11/19)
Length of Visible Light 10h 53m
Length of Day
9h 56m
Waning Gibbous, 96% of the Moon is Illuminated
Nov 19
Waning Gibbous
Nov 25
Last Quarter
Dec 2
New
Dec 9
First Quarter
Dec 17
Full

Hourly Weather History & Observations

Time (MST) Temp. Windchill Dew Point Humidity Pressure Visibility Wind Dir Wind Speed Gust Speed Precip Events Conditions
12:53 AM 30.0 °F 26.5 °F 19.9 °F 66% 30.07 in 10.0 mi SW 3.5 mph - N/A   Clear
1:53 AM 30.0 °F - 19.9 °F 66% 30.04 in 10.0 mi Calm Calm - N/A   Clear
2:53 AM 32.0 °F - 24.1 °F 73% 30.02 in 10.0 mi Calm Calm - N/A   Clear
3:53 AM 34.0 °F - 25.0 °F 70% 30.00 in 10.0 mi Calm Calm - N/A   Clear
4:53 AM 35.1 °F - 25.0 °F 67% 29.99 in 10.0 mi Calm Calm - N/A   Clear
5:53 AM 34.0 °F 31.0 °F 25.0 °F 70% 30.00 in 10.0 mi SSE 3.5 mph - N/A   Clear
6:53 AM 34.0 °F - 24.1 °F 67% 30.03 in 10.0 mi Calm Calm - N/A   Clear
7:53 AM 37.0 °F 31.6 °F 25.0 °F 62% 30.02 in 10.0 mi SE 6.9 mph - N/A   Clear
8:53 AM 39.9 °F 35.1 °F 26.1 °F 58% 30.01 in 10.0 mi SE 6.9 mph - N/A   Partly Cloudy
9:53 AM 43.0 °F - 26.1 °F 51% 30.01 in 10.0 mi Calm Calm - N/A   Partly Cloudy
10:53 AM 46.0 °F - 26.1 °F 46% 29.99 in 10.0 mi Calm Calm - N/A   Clear
11:53 AM 48.0 °F - 26.1 °F 42% 29.94 in 10.0 mi Calm Calm - N/A   Clear
12:53 PM 48.9 °F - 26.1 °F 41% 29.93 in 10.0 mi Calm Calm - N/A   Partly Cloudy
1:53 PM 50.0 °F - 26.1 °F 39% 29.90 in 10.0 mi Calm Calm - N/A   Partly Cloudy
2:53 PM 50.0 °F - 27.0 °F 41% 29.89 in 10.0 mi WNW 6.9 mph - N/A   Mostly Cloudy
3:53 PM 48.9 °F - 28.0 °F 44% 29.89 in 10.0 mi NW 5.8 mph - N/A   Scattered Clouds
4:53 PM 46.9 °F - 28.0 °F 48% 29.89 in 10.0 mi NNW 6.9 mph - N/A   Overcast
5:53 PM 45.0 °F - 27.0 °F 49% 29.92 in 10.0 mi Calm Calm - N/A   Overcast
6:53 PM 44.1 °F 40.1 °F 27.0 °F 51% 29.93 in 10.0 mi NW 6.9 mph - N/A   Overcast
7:53 PM 44.1 °F 39.5 °F 27.0 °F 51% 29.92 in 10.0 mi NNW 8.1 mph - N/A   Overcast
8:53 PM 43.0 °F - 27.0 °F 53% 29.92 in 10.0 mi Calm Calm - N/A   Overcast
9:53 PM 42.1 °F - 27.0 °F 55% 29.92 in 10.0 mi Calm Calm - N/A   Overcast
10:53 PM 39.9 °F - 27.0 °F 60% 29.90 in 10.0 mi Calm Calm - N/A   Partly Cloudy
11:53 PM 35.1 °F 31.0 °F 24.1 °F 64% 29.93 in 10.0 mi WSW 4.6 mph - N/A   Clear